Time,TemperatureF,DewpointF,PressureIn,WindDirection,WindDirectionDegrees,WindSpeedMPH,WindSpeedGustMPH,Humidity,HourlyPrecipIn,Conditions,Clouds,dailyrainin,SoftwareType,DateUTC
2013-05-04 00:00:00,67.7,15.0,30.08,NW,323,1.0,9.0,13,0.00,,,0.00,Wunderground v.1.15,2013-05-04 07:00:00,
2013-05-04 00:05:00,68.1,15.3,30.08,NW,321,1.0,9.0,13,0.00,,,0.00,Wunderground v.1.15,2013-05-04 07:05:00,
2013-05-04 00:15:00,67.2,14.6,30.07,NW,321,0.0,7.0,13,0.00,,,0.00,Wunderground v.1.15,2013-05-04 07:15:00,
2013-05-04 00:20:00,66.6,14.2,30.07,NW,321,0.0,7.0,13,0.00,,,0.00,Wunderground v.1.15,2013-05-04 07:20:00,
2013-05-04 00:30:00,65.9,15.3,30.07,NW,321,0.0,7.0,14,0.00,,,0.00,Wunderground v.1.15,2013-05-04 07:30:00,
2013-05-04 00:35:00,65.2,14.7,30.07,NW,321,0.0,7.0,14,0.00,,,0.00,Wunderground v.1.15,2013-05-04 07:35:00,
2013-05-04 00:40:00,64.6,14.3,30.06,NW,321,1.0,1.0,14,0.00,,,0.00,Wunderground v.1.15,2013-05-04 07:40:00,
2013-05-04 00:45:00,64.9,14.5,30.06,NW,321,2.0,2.0,14,0.00,,,0.00,Wunderground v.1.15,2013-05-04 07:45:00,
2013-05-04 00:55:00,65.2,14.7,30.06,NW,321,0.0,1.0,14,0.00,,,0.00,Wunderground v.1.15,2013-05-04 07:55:00,
2013-05-04 01:00:00,64.9,14.5,30.06,NW,321,0.0,1.0,14,0.00,,,0.00,Wunderground v.1.15,2013-05-04 08:00:00,
2013-05-04 01:05:00,65.0,12.9,30.06,NW,321,0.0,4.0,13,0.00,,,0.00,Wunderground v.1.15,2013-05-04 08:05:00,
2013-05-04 01:15:00,65.1,13.0,30.05,NW,321,0.0,4.0,13,0.00,,,0.00,Wunderground v.1.15,2013-05-04 08:15:00,
2013-05-04 01:20:00,64.5,14.2,30.05,NW,321,0.0,4.0,14,0.00,,,0.00,Wunderground v.1.15,2013-05-04 08:20:00,
2013-05-04 01:30:00,63.5,13.4,30.04,NW,321,0.0,4.0,14,0.00,,,0.00,Wunderground v.1.15,2013-05-04 08:30:00,
2013-05-04 01:35:00,62.9,14.5,30.04,NW,321,1.0,4.0,15,0.00,,,0.00,Wunderground v.1.15,2013-05-04 08:35:00,
2013-05-04 01:45:00,63.2,13.1,30.04,NW,321,1.0,4.0,14,0.00,,,0.00,Wunderground v.1.15,2013-05-04 08:45:00,
2013-05-04 01:55:00,64.1,12.2,30.03,NW,321,0.0,4.0,13,0.00,,,0.00,Wunderground v.1.15,2013-05-04 08:55:00,
2013-05-04 02:00:00,64.4,12.4,30.03,NW,321,0.0,4.0,13,0.00,,,0.00,Wunderground v.1.15,2013-05-04 09:00:00,
2013-05-04 02:05:00,64.3,12.3,30.03,NW,321,0.0,5.0,13,0.00,,,0.00,Wunderground v.1.15,2013-05-04 09:05:00,
2013-05-04 02:15:00,64.1,12.2,30.02,NW,321,0.0,5.0,13,0.00,,,0.00,Wunderground v.1.15,2013-05-04 09:15:00,
2013-05-04 02:20:00,64.1,12.2,30.02,NW,321,0.0,5.0,13,0.00,,,0.00,Wunderground v.1.15,2013-05-04 09:20:00,
2013-05-04 02:30:00,64.4,12.4,30.02,NW,321,0.0,5.0,13,0.00,,,0.00,Wunderground v.1.15,2013-05-04 09:30:00,
2013-05-04 02:35:00,64.2,12.3,30.02,NW,321,0.0,5.0,13,0.00,,,0.00,Wunderground v.1.15,2013-05-04 09:35:00,
2013-05-04 02:40:00,63.8,11.9,30.02,NW,321,0.0,3.0,13,0.00,,,0.00,Wunderground v.1.15,2013-05-04 09:40:00,
2013-05-04 02:45:00,63.4,11.6,30.02,NW,321,0.0,3.0,13,0.00,,,0.00,Wunderground v.1.15,2013-05-04 09:45:00,
2013-05-04 02:50:00,63.3,11.5,30.02,NW,321,0.0,3.0,13,0.00,,,0.00,Wunderground v.1.15,2013-05-04 09:50:00,
2013-05-04 03:00:00,63.6,10.0,30.01,NW,321,0.0,3.0,12,0.00,,,0.00,Wunderground v.1.15,2013-05-04 10:00:00,
2013-05-04 03:05:00,63.5,9.9,30.01,NW,321,0.0,3.0,12,0.00,,,0.00,Wunderground v.1.15,2013-05-04 10:05:00,
2013-05-04 03:15:00,62.4,10.8,30.01,NW,321,0.0,0.0,13,0.00,,,0.00,Wunderground v.1.15,2013-05-04 10:15:00,
2013-05-04 03:20:00,62.4,10.8,30.01,NW,321,0.0,0.0,13,0.00,,,0.00,Wunderground v.1.15,2013-05-04 10:20:00,
2013-05-04 03:25:00,61.8,12.0,30.01,NW,321,0.0,0.0,14,0.00,,,0.00,Wunderground v.1.15,2013-05-04 10:25:00,
2013-05-04 03:35:00,62.0,10.5,30.01,NW,321,0.0,3.0,13,0.00,,,0.00,Wunderground v.1.15,2013-05-04 10:35:00,
2013-05-04 03:45:00,62.6,11.0,30.00,NW,321,1.0,3.0,13,0.00,,,0.00,Wunderground v.1.15,2013-05-04 10:45:00,
2013-05-04 03:50:00,62.4,10.8,30.00,NW,321,1.0,1.0,13,0.00,,,0.00,Wunderground v.1.15,2013-05-04 10:50:00,
2013-05-04 04:00:00,62.7,11.1,30.00,NW,321,1.0,1.0,13,0.00,,,0.00,Wunderground v.1.15,2013-05-04 11:00:00,
2013-05-04 04:05:00,61.7,10.3,30.00,NW,321,1.0,3.0,13,0.00,,,0.00,Wunderground v.1.15,2013-05-04 11:05:00,
2013-05-04 04:15:00,61.5,10.1,30.00,NW,321,1.0,4.0,13,0.00,,,0.00,Wunderground v.1.15,2013-05-04 11:15:00,
2013-05-04 04:20:00,61.6,10.2,30.00,NW,321,1.0,4.0,13,0.00,,,0.00,Wunderground v.1.15,2013-05-04 11:20:00,
2013-05-04 04:30:00,61.5,10.1,29.99,NW,321,1.0,4.0,13,0.00,,,0.00,Wunderground v.1.15,2013-05-04 11:30:00,
2013-05-04 04:35:00,61.2,9.9,29.99,NW,316,3.0,5.0,13,0.00,,,0.00,Wunderground v.1.15,2013-05-04 11:35:00,
2013-05-04 04:45:00,60.8,9.6,29.99,WNW,302,3.0,6.0,13,0.00,,,0.00,Wunderground v.1.15,2013-05-04 11:45:00,
2013-05-04 04:50:00,60.4,10.9,29.99,WNW,302,1.0,1.0,14,0.00,,,0.00,Wunderground v.1.15,2013-05-04 11:50:00,
2013-05-04 04:55:00,60.0,10.6,29.99,WNW,302,0.0,6.0,14,0.00,,,0.00,Wunderground v.1.15,2013-05-04 11:55:00,
2013-05-04 05:00:00,60.0,10.6,29.99,WNW,302,0.0,6.0,14,0.00,,,0.00,Wunderground v.1.15,2013-05-04 12:00:00,
2013-05-04 05:10:00,59.3,11.6,29.99,WNW,302,0.0,8.0,15,0.00,,,0.00,Wunderground v.1.15,2013-05-04 12:10:00,
2013-05-04 05:15:00,59.1,11.4,29.98,WNW,302,0.0,8.0,15,0.00,,,0.00,Wunderground v.1.15,2013-05-04 12:15:00,
2013-05-04 05:25:00,58.1,10.6,29.98,WNW,302,1.0,8.0,15,0.00,,,0.00,Wunderground v.1.15,2013-05-04 12:25:00,
2013-05-04 05:30:00,57.6,11.7,29.98,WNW,302,0.0,8.0,16,0.00,,,0.00,Wunderground v.1.15,2013-05-04 12:30:00,
2013-05-04 05:40:00,58.7,11.1,29.98,WNW,302,1.0,1.0,15,0.00,,,0.00,Wunderground v.1.15,2013-05-04 12:40:00,
2013-05-04 05:45:00,59.0,11.3,29.99,WNW,302,0.0,5.0,15,0.00,,,0.00,Wunderground v.1.15,2013-05-04 12:45:00,
2013-05-04 05:50:00,58.9,11.3,29.99,WNW,302,0.0,5.0,15,0.00,,,0.00,Wunderground v.1.15,2013-05-04 12:50:00,
2013-05-04 06:00:00,58.5,10.9,29.99,WNW,302,1.0,1.0,15,0.00,,,0.00,Wunderground v.1.15,2013-05-04 13:00:00,
2013-05-04 06:05:00,58.1,10.6,29.99,WNW,302,0.0,4.0,15,0.00,,,0.00,Wunderground v.1.15,2013-05-04 13:05:00,
2013-05-04 06:15:00,57.8,10.4,29.99,WNW,302,0.0,4.0,15,0.00,,,0.00,Wunderground v.1.15,2013-05-04 13:15:00,
2013-05-04 06:20:00,58.0,10.5,29.99,WNW,302,1.0,1.0,15,0.00,,,0.00,Wunderground v.1.15,2013-05-04 13:20:00,
2013-05-04 06:30:00,59.0,11.3,29.99,WNW,302,0.0,4.0,15,0.00,,,0.00,Wunderground v.1.15,2013-05-04 13:30:00,
2013-05-04 06:35:00,59.8,12.0,29.99,WNW,302,1.0,4.0,15,0.00,,,0.00,Wunderground v.1.15,2013-05-04 13:35:00,
2013-05-04 06:40:00,60.3,12.4,29.99,WNW,302,0.0,4.0,15,0.00,,,0.00,Wunderground v.1.15,2013-05-04 13:40:00,
2013-05-04 06:50:00,60.9,11.3,29.99,WNW,302,0.0,4.0,14,0.00,,,0.00,Wunderground v.1.15,2013-05-04 13:50:00,
2013-05-04 07:00:00,62.5,10.9,29.99,WNW,284,2.0,2.0,13,0.00,,,0.00,Wunderground v.1.15,2013-05-04 14:00:00,
2013-05-04 07:10:00,63.7,13.5,29.99,WNW,284,0.0,5.0,14,0.00,,,0.00,Wunderground v.1.15,2013-05-04 14:10:00,
2013-05-04 07:15:00,64.1,13.9,29.99,WNW,284,0.0,5.0,14,0.00,,,0.00,Wunderground v.1.15,2013-05-04 14:15:00,
2013-05-04 07:20:00,64.7,14.3,29.99,WNW,284,0.0,5.0,14,0.00,,,0.00,Wunderground v.1.15,2013-05-04 14:20:00,
2013-05-04 07:30:00,66.2,13.8,29.99,WNW,284,0.0,5.0,13,0.00,,,0.00,Wunderground v.1.15,2013-05-04 14:30:00,
2013-05-04 07:35:00,66.9,16.1,29.99,WNW,284,0.0,5.0,14,0.00,,,0.00,Wunderground v.1.15,2013-05-04 14:35:00,
2013-05-04 07:40:00,67.1,12.7,29.99,WNW,284,0.0,1.0,12,0.00,,,0.00,Wunderground v.1.15,2013-05-04 14:40:00,
2013-05-04 07:50:00,68.4,13.7,29.99,WNW,284,0.0,1.0,12,0.00,,,0.00,Wunderground v.1.15,2013-05-04 14:50:00,
2013-05-04 08:00:00,69.4,14.5,29.99,WNW,284,0.0,1.0,12,0.00,,,0.00,Wunderground v.1.15,2013-05-04 15:00:00,
2013-05-04 08:05:00,70.0,13.0,29.99,WNW,284,0.0,1.0,11,0.00,,,0.00,Wunderground v.1.15,2013-05-04 15:05:00,
2013-05-04 08:15:00,71.7,9.8,29.99,WNW,284,0.0,0.0,9,0.00,,,0.00,Wunderground v.1.15,2013-05-04 15:15:00,
2013-05-04 08:20:00,71.7,12.2,29.99,WNW,284,0.0,0.0,10,0.00,,,0.00,Wunderground v.1.15,2013-05-04 15:20:00,
2013-05-04 08:30:00,72.0,10.0,29.99,WNW,284,0.0,0.0,9,0.00,,,0.00,Wunderground v.1.15,2013-05-04 15:30:00,
2013-05-04 08:35:00,71.9,9.9,29.99,WNW,284,0.0,3.0,9,0.00,,,0.00,Wunderground v.1.15,2013-05-04 15:35:00,
2013-05-04 08:40:00,72.0,10.0,29.99,WNW,284,0.0,3.0,9,0.00,,,0.00,Wunderground v.1.15,2013-05-04 15:40:00,
2013-05-04 08:50:00,72.4,10.3,29.99,West,278,0.0,3.0,9,0.00,,,0.00,Wunderground v.1.15,2013-05-04 15:50:00,
2013-05-04 08:55:00,72.4,10.3,29.99,West,271,0.0,3.0,9,0.00,,,0.00,Wunderground v.1.15,2013-05-04 15:55:00,
2013-05-04 09:00:00,72.8,10.6,29.99,West,271,0.0,3.0,9,0.00,,,0.00,Wunderground v.1.15,2013-05-04 16:00:00,
2013-05-04 09:05:00,73.0,10.8,29.99,West,272,1.0,4.0,9,0.00,,,0.00,Wunderground v.1.15,2013-05-04 16:05:00,
2013-05-04 09:15:00,73.7,5.7,29.99,NNW,333,4.0,11.0,7,0.00,,,0.00,Wunderground v.1.15,2013-05-04 16:15:00,
2013-05-04 09:20:00,73.5,8.5,29.99,NW,323,7.0,7.0,8,0.00,,,0.00,Wunderground v.1.15,2013-05-04 16:20:00,
2013-05-04 09:30:00,74.1,6.0,29.99,WNW,286,4.0,7.0,7,0.00,,,0.00,Wunderground v.1.15,2013-05-04 16:30:00,
2013-05-04 09:35:00,73.9,5.9,29.99,WNW,299,5.0,11.0,7,0.00,,,0.00,Wunderground v.1.15,2013-05-04 16:35:00,
2013-05-04 09:45:00,73.8,5.8,29.99,NW,321,10.0,17.0,7,0.00,,,0.00,Wunderground v.1.15,2013-05-04 16:45:00,
2013-05-04 09:50:00,73.8,5.8,29.99,NNW,333,10.0,10.0,7,0.00,,,0.00,Wunderground v.1.15,2013-05-04 16:50:00,
2013-05-04 09:55:00,73.6,5.6,29.99,WNW,300,12.0,12.0,7,0.00,,,0.00,Wunderground v.1.15,2013-05-04 16:55:00,
2013-05-04 10:00:00,74.4,6.2,29.99,NW,310,11.0,17.0,7,0.00,,,0.00,Wunderground v.1.15,2013-05-04 17:00:00,
2013-05-04 10:05:00,73.9,5.9,29.99,WNW,302,12.0,23.0,7,0.00,,,0.00,Wunderground v.1.15,2013-05-04 17:05:00,
2013-05-04 10:15:00,74.1,6.0,30.00,NW,323,11.0,23.0,7,0.00,,,0.00,Wunderground v.1.15,2013-05-04 17:15:00,
2013-05-04 10:20:00,74.5,6.3,29.99,NNW,336,10.0,10.0,7,0.00,,,0.00,Wunderground v.1.15,2013-05-04 17:20:00,
2013-05-04 10:30:00,74.6,6.4,29.99,NW,317,12.0,23.0,7,0.00,,,0.00,Wunderground v.1.15,2013-05-04 17:30:00,
2013-05-04 10:35:00,75.1,6.7,29.99,NW,306,12.0,23.0,7,0.00,,,0.00,Wunderground v.1.15,2013-05-04 17:35:00,
2013-05-04 10:40:00,75.2,3.4,29.99,WNW,293,12.0,12.0,6,0.00,,,0.00,Wunderground v.1.15,2013-05-04 17:40:00,
2013-05-04 10:45:00,74.9,6.6,29.99,WNW,296,12.0,23.0,7,0.00,,,0.00,Wunderground v.1.15,2013-05-04 17:45:00,
2013-05-04 10:55:00,75.1,6.7,29.99,NW,326,12.0,23.0,7,0.00,,,0.00,Wunderground v.1.15,2013-05-04 17:55:00,
2013-05-04 11:00:00,75.1,6.7,29.99,WNW,294,12.0,23.0,7,0.00,,,0.00,Wunderground v.1.15,2013-05-04 18:00:00,
2013-05-04 11:05:00,75.2,3.4,29.99,WNW,286,11.0,23.0,6,0.00,,,0.00,Wunderground v.1.15,2013-05-04 18:05:00,
2013-05-04 11:15:00,75.3,6.9,29.99,WNW,288,10.0,22.0,7,0.00,,,0.00,Wunderground v.1.15,2013-05-04 18:15:00,
2013-05-04 11:20:00,76.0,7.4,29.98,WNW,298,8.0,8.0,7,0.00,,,0.00,Wunderground v.1.15,2013-05-04 18:20:00,
2013-05-04 11:30:00,76.3,7.6,29.98,NW,319,6.0,22.0,7,0.00,,,0.00,Wunderground v.1.15,2013-05-04 18:30:00,
2013-05-04 11:35:00,76.2,4.2,29.98,NNW,334,7.0,22.0,6,0.00,,,0.00,Wunderground v.1.15,2013-05-04 18:35:00,
2013-05-04 11:45:00,75.9,7.3,29.98,WNW,300,9.0,11.0,7,0.00,,,0.00,Wunderground v.1.15,2013-05-04 18:45:00,
2013-05-04 11:50:00,76.3,7.6,29.97,NNW,343,8.0,17.0,7,0.00,,,0.00,Wunderground v.1.15,2013-05-04 18:50:00,
2013-05-04 12:00:00,76.9,4.7,29.97,NNW,329,8.0,17.0,6,0.00,,,0.00,Wunderground v.1.15,2013-05-04 19:00:00,
2013-05-04 12:05:00,76.7,4.5,29.97,NW,316,9.0,19.0,6,0.00,,,0.00,Wunderground v.1.15,2013-05-04 19:05:00,
2013-05-04 12:15:00,76.4,7.7,29.96,North,350,9.0,19.0,7,0.00,,,0.00,Wunderground v.1.15,2013-05-04 19:15:00,
2013-05-04 12:20:00,76.7,4.5,29.97,WNW,300,9.0,19.0,6,0.00,,,0.00,Wunderground v.1.15,2013-05-04 19:20:00,
2013-05-04 12:25:00,76.8,4.6,29.96,NNW,341,9.0,19.0,6,0.00,,,0.00,Wunderground v.1.15,2013-05-04 19:25:00,
2013-05-04 12:35:00,77.5,5.1,29.96,NNW,327,7.0,19.0,6,0.00,,,0.00,Wunderground v.1.15,2013-05-04 19:35:00,
2013-05-04 12:40:00,77.3,5.0,29.95,NW,318,9.0,18.0,6,0.00,,,0.00,Wunderground v.1.15,2013-05-04 19:40:00,
2013-05-04 12:45:00,77.1,8.2,29.95,WNW,292,10.0,18.0,7,0.00,,,0.00,Wunderground v.1.15,2013-05-04 19:45:00,
2013-05-04 12:50:00,77.3,5.0,29.95,WNW,296,9.0,18.0,6,0.00,,,0.00,Wunderground v.1.15,2013-05-04 19:50:00,
2013-05-04 13:00:00,78.4,5.8,29.95,NNW,336,7.0,18.0,6,0.00,,,0.00,Wunderground v.1.15,2013-05-04 20:00:00,
2013-05-04 13:05:00,78.1,5.5,29.95,West,274,7.0,19.0,6,0.00,,,0.00,Wunderground v.1.15,2013-05-04 20:05:00,
2013-05-04 13:10:00,78.2,5.6,29.95,West,267,8.0,8.0,6,0.00,,,0.00,Wunderground v.1.15,2013-05-04 20:10:00,
2013-05-04 13:20:00,78.6,5.9,29.94,WNW,299,7.0,7.0,6,0.00,,,0.00,Wunderground v.1.15,2013-05-04 20:20:00,
2013-05-04 13:30:00,79.0,6.2,29.93,West,280,6.0,19.0,6,0.00,,,0.00,Wunderground v.1.15,2013-05-04 20:30:00,
2013-05-04 13:35:00,78.1,5.5,29.94,NW,304,10.0,21.0,6,0.00,,,0.00,Wunderground v.1.15,2013-05-04 20:35:00,
2013-05-04 13:45:00,78.2,5.6,29.94,NW,325,11.0,21.0,6,0.00,,,0.00,Wunderground v.1.15,2013-05-04 20:45:00,
2013-05-04 13:50:00,78.0,5.5,29.93,West,275,12.0,21.0,6,0.00,,,0.00,Wunderground v.1.15,2013-05-04 20:50:00,
2013-05-04 14:00:00,78.5,5.8,29.93,NNW,337,12.0,21.0,6,0.00,,,0.00,Wunderground v.1.15,2013-05-04 21:00:00,
2013-05-04 14:05:00,77.8,8.7,29.92,NW,306,12.0,22.0,7,0.00,,,0.00,Wunderground v.1.15,2013-05-04 21:05:00,
2013-05-04 14:10:00,78.0,8.9,29.92,WNW,296,12.0,12.0,7,0.00,,,0.00,Wunderground v.1.15,2013-05-04 21:10:00,
2013-05-04 14:15:00,77.8,8.7,29.92,NW,314,12.0,14.0,7,0.00,,,0.00,Wunderground v.1.15,2013-05-04 21:15:00,
2013-05-04 14:25:00,77.8,8.7,29.92,NNW,331,13.0,22.0,7,0.00,,,0.00,Wunderground v.1.15,2013-05-04 21:25:00,
2013-05-04 14:30:00,77.9,8.8,29.92,WNW,282,15.0,15.0,7,0.00,,,0.00,Wunderground v.1.15,2013-05-04 21:30:00,
2013-05-04 14:35:00,77.9,8.8,29.91,NW,326,14.0,26.0,7,0.00,,,0.00,Wunderground v.1.15,2013-05-04 21:35:00,
2013-05-04 14:45:00,78.1,8.9,29.91,WNW,300,14.0,26.0,7,0.00,,,0.00,Wunderground v.1.15,2013-05-04 21:45:00,
2013-05-04 14:50:00,78.0,8.9,29.90,NW,310,14.0,26.0,7,0.00,,,0.00,Wunderground v.1.15,2013-05-04 21:50:00,
2013-05-04 15:00:00,78.0,8.9,29.89,WNW,300,14.0,14.0,7,0.00,,,0.00,Wunderground v.1.15,2013-05-04 22:00:00,
2013-05-04 15:05:00,77.6,8.6,29.89,NNW,333,14.0,20.0,7,0.00,,,0.00,Wunderground v.1.15,2013-05-04 22:05:00,
2013-05-04 15:10:00,77.2,8.3,29.89,NNW,331,15.0,26.0,7,0.00,,,0.00,Wunderground v.1.15,2013-05-04 22:10:00,
2013-05-04 15:15:00,77.3,8.4,29.89,NNW,331,15.0,26.0,7,0.00,,,0.00,Wunderground v.1.15,2013-05-04 22:15:00,
2013-05-04 15:20:00,77.2,8.3,29.89,NW,321,16.0,16.0,7,0.00,,,0.00,Wunderground v.1.15,2013-05-04 22:20:00,
2013-05-04 15:30:00,77.4,8.4,29.89,NW,318,16.0,26.0,7,0.00,,,0.00,Wunderground v.1.15,2013-05-04 22:30:00,
2013-05-04 15:35:00,77.4,8.4,29.89,NNW,336,16.0,27.0,7,0.00,,,0.00,Wunderground v.1.15,2013-05-04 22:35:00,
2013-05-04 15:40:00,77.5,8.5,29.89,North,6,16.0,27.0,7,0.00,,,0.00,Wunderground v.1.15,2013-05-04 22:40:00,
2013-05-04 15:45:00,77.3,8.4,29.89,NW,318,17.0,27.0,7,0.00,,,0.00,Wunderground v.1.15,2013-05-04 22:45:00,
2013-05-04 15:50:00,77.3,8.4,29.88,NNW,334,17.0,27.0,7,0.00,,,0.00,Wunderground v.1.15,2013-05-04 22:50:00,
2013-05-04 16:00:00,77.1,11.2,29.88,WNW,301,17.0,17.0,8,0.00,,,0.00,Wunderground v.1.15,2013-05-04 23:00:00,
2013-05-04 16:05:00,77.3,11.3,29.88,NW,319,16.0,29.0,8,0.00,,,0.00,Wunderground v.1.15,2013-05-04 23:05:00,
2013-05-04 16:15:00,76.7,10.9,29.88,NNW,338,16.0,29.0,8,0.00,,,0.00,Wunderground v.1.15,2013-05-04 23:15:00,
2013-05-04 16:20:00,76.6,13.5,29.88,NW,320,16.0,29.0,9,0.00,,,0.00,Wunderground v.1.15,2013-05-04 23:20:00,
2013-05-04 16:25:00,76.6,13.5,29.87,NNW,343,16.0,29.0,9,0.00,,,0.00,Wunderground v.1.15,2013-05-04 23:25:00,
2013-05-04 16:35:00,76.6,13.5,29.88,NW,315,15.0,33.0,9,0.00,,,0.00,Wunderground v.1.15,2013-05-04 23:35:00,
2013-05-04 16:45:00,75.9,15.4,29.88,WNW,286,15.0,33.0,10,0.00,,,0.00,Wunderground v.1.15,2013-05-04 23:45:00,
2013-05-04 16:50:00,75.5,15.1,29.88,NNW,330,16.0,33.0,10,0.00,,,0.00,Wunderground v.1.15,2013-05-04 23:50:00,
2013-05-04 17:00:00,74.8,20.6,29.88,NNW,330,20.0,33.0,13,0.00,,,0.00,Wunderground v.1.15,2013-05-05 00:00:00,
2013-05-04 17:05:00,74.5,20.4,29.87,NNW,331,19.0,33.0,13,0.00,,,0.00,Wunderground v.1.15,2013-05-05 00:05:00,
2013-05-04 17:15:00,74.2,21.9,29.88,NW,312,19.0,30.0,14,0.00,,,0.00,Wunderground v.1.15,2013-05-05 00:15:00,
2013-05-04 17:20:00,73.3,21.2,29.88,NNW,347,19.0,19.0,14,0.00,,,0.00,Wunderground v.1.15,2013-05-05 00:20:00,
2013-05-04 17:25:00,73.1,21.0,29.88,NNW,327,20.0,30.0,14,0.00,,,0.00,Wunderground v.1.15,2013-05-05 00:25:00,
2013-05-04 17:30:00,73.0,19.2,29.88,NW,321,21.0,30.0,13,0.00,,,0.00,Wunderground v.1.15,2013-05-05 00:30:00,
2013-05-04 17:40:00,73.2,21.1,29.88,NNW,333,16.0,16.0,14,0.00,,,0.00,Wunderground v.1.15,2013-05-05 00:40:00,
2013-05-04 17:45:00,72.7,20.7,29.88,NW,317,14.0,33.0,14,0.00,,,0.00,Wunderground v.1.15,2013-05-05 00:45:00,
2013-05-04 17:50:00,72.2,20.3,29.87,NW,316,14.0,14.0,14,0.00,,,0.00,Wunderground v.1.15,2013-05-05 00:50:00,
2013-05-04 18:00:00,71.6,21.5,29.87,NNW,329,15.0,15.0,15,0.00,,,0.00,Wunderground v.1.15,2013-05-05 01:00:00,
2013-05-04 18:05:00,71.6,21.5,29.87,NW,323,16.0,21.0,15,0.00,,,0.00,Wunderground v.1.15,2013-05-05 01:05:00,
2013-05-04 18:15:00,71.3,22.7,29.88,NNW,335,17.0,18.0,16,0.00,,,0.00,Wunderground v.1.15,2013-05-05 01:15:00,
2013-05-04 18:20:00,70.9,22.4,29.87,NNW,331,18.0,26.0,16,0.00,,,0.00,Wunderground v.1.15,2013-05-05 01:20:00,
2013-05-04 18:30:00,69.8,21.5,29.88,NNW,337,18.0,26.0,16,0.00,,,0.00,Wunderground v.1.15,2013-05-05 01:30:00,
2013-05-04 18:35:00,69.0,23.7,29.88,NNW,329,19.0,34.0,18,0.00,,,0.00,Wunderground v.1.15,2013-05-05 01:35:00,
2013-05-04 18:45:00,68.5,23.3,29.89,NW,322,19.0,34.0,18,0.00,,,0.00,Wunderground v.1.15,2013-05-05 01:45:00,
2013-05-04 18:50:00,68.5,21.9,29.89,NNW,329,17.0,34.0,17,0.00,,,0.00,Wunderground v.1.15,2013-05-05 01:50:00,
2013-05-04 19:00:00,68.6,19.1,29.90,NW,323,18.0,34.0,15,0.00,,,0.00,Wunderground v.1.15,2013-05-05 02:00:00,
2013-05-04 19:05:00,68.7,20.6,29.90,NNW,337,18.0,34.0,16,0.00,,,0.00,Wunderground v.1.15,2013-05-05 02:05:00,
2013-05-04 19:10:00,68.6,22.0,29.90,NNW,343,17.0,17.0,17,0.00,,,0.00,Wunderground v.1.15,2013-05-05 02:10:00,
2013-05-04 19:15:00,68.4,23.2,29.90,North,357,17.0,25.0,18,0.00,,,0.00,Wunderground v.1.15,2013-05-05 02:15:00,
2013-05-04 19:20:00,68.2,24.3,29.90,WNW,302,18.0,18.0,19,0.00,,,0.00,Wunderground v.1.15,2013-05-05 02:20:00,
2013-05-04 19:30:00,67.8,25.2,29.90,NW,318,15.0,15.0,20,0.00,,,0.00,Wunderground v.1.15,2013-05-05 02:30:00,
2013-05-04 19:35:00,67.6,25.1,29.90,NW,323,15.0,30.0,20,0.00,,,0.00,Wunderground v.1.15,2013-05-05 02:35:00,
2013-05-04 19:40:00,67.6,25.1,29.90,WNW,287,16.0,16.0,20,0.00,,,0.00,Wunderground v.1.15,2013-05-05 02:40:00,
2013-05-04 19:45:00,67.4,24.9,29.90,NW,306,16.0,21.0,20,0.00,,,0.00,Wunderground v.1.15,2013-05-05 02:45:00,
2013-05-04 19:55:00,67.3,23.6,29.91,NW,325,17.0,18.0,19,0.00,,,0.00,Wunderground v.1.15,2013-05-05 02:55:00,
2013-05-04 20:00:00,67.3,23.6,29.91,NNW,328,18.0,18.0,19,0.00,,,0.00,Wunderground v.1.15,2013-05-05 03:00:00,
2013-05-04 20:05:00,67.2,23.5,29.92,NNW,344,17.0,38.0,19,0.00,,,0.00,Wunderground v.1.15,2013-05-05 03:05:00,
2013-05-04 20:15:00,67.1,25.8,29.91,NW,308,18.0,18.0,21,0.00,,,0.00,Wunderground v.1.15,2013-05-05 03:15:00,
2013-05-04 20:20:00,67.0,25.7,29.91,NW,321,18.0,18.0,21,0.00,,,0.00,Wunderground v.1.15,2013-05-05 03:20:00,
2013-05-04 20:30:00,67.1,24.6,29.92,NNW,329,18.0,18.0,20,0.00,,,0.00,Wunderground v.1.15,2013-05-05 03:30:00,
2013-05-04 20:35:00,67.3,24.8,29.92,NNW,331,18.0,31.0,20,0.00,,,0.00,Wunderground v.1.15,2013-05-05 03:35:00,
2013-05-04 20:45:00,67.2,25.9,29.92,NW,305,16.0,31.0,21,0.00,,,0.00,Wunderground v.1.15,2013-05-05 03:45:00,
2013-05-04 20:50:00,66.6,26.5,29.92,NNW,339,16.0,31.0,22,0.00,,,0.00,Wunderground v.1.15,2013-05-05 03:50:00,
2013-05-04 20:55:00,66.3,25.2,29.92,NW,306,16.0,31.0,21,0.00,,,0.00,Wunderground v.1.15,2013-05-05 03:55:00,
2013-05-04 21:00:00,66.6,23.0,29.92,NNW,338,16.0,16.0,19,0.00,,,0.00,Wunderground v.1.15,2013-05-05 04:00:00,
2013-05-04 21:05:00,66.4,25.2,29.92,NW,320,16.0,21.0,21,0.00,,,0.00,Wunderground v.1.15,2013-05-05 04:05:00,
2013-05-04 21:10:00,66.1,23.8,29.92,NNW,338,17.0,32.0,20,0.00,,,0.00,Wunderground v.1.15,2013-05-05 04:10:00,
2013-05-04 21:15:00,65.9,24.8,29.93,NW,325,17.0,32.0,21,0.00,,,0.00,Wunderground v.1.15,2013-05-05 04:15:00,
2013-05-04 21:20:00,65.6,24.6,29.92,NNW,328,17.0,32.0,21,0.00,,,0.00,Wunderground v.1.15,2013-05-05 04:20:00,
2013-05-04 21:25:00,65.4,24.4,29.93,NNW,334,16.0,32.0,21,0.00,,,0.00,Wunderground v.1.15,2013-05-05 04:25:00,
2013-05-04 21:30:00,65.4,23.2,29.93,NW,325,17.0,32.0,20,0.00,,,0.00,Wunderground v.1.15,2013-05-05 04:30:00,
2013-05-04 21:35:00,65.5,23.3,29.93,NNW,329,18.0,33.0,20,0.00,,,0.00,Wunderground v.1.15,2013-05-05 04:35:00,
2013-05-04 21:40:00,65.6,22.2,29.93,NNW,341,18.0,18.0,19,0.00,,,0.00,Wunderground v.1.15,2013-05-05 04:40:00,
2013-05-04 21:45:00,65.7,19.6,29.92,NNW,339,17.0,25.0,17,0.00,,,0.00,Wunderground v.1.15,2013-05-05 04:45:00,
2013-05-04 21:55:00,65.7,19.6,29.93,NW,310,17.0,33.0,17,0.00,,,0.00,Wunderground v.1.15,2013-05-05 04:55:00,
2013-05-04 22:00:00,65.9,16.9,29.93,NNW,335,17.0,33.0,15,0.00,,,0.00,Wunderground v.1.15,2013-05-05 05:00:00,
2013-05-04 22:05:00,66.1,15.5,29.93,NW,316,18.0,35.0,14,0.00,,,0.00,Wunderground v.1.15,2013-05-05 05:05:00,
2013-05-04 22:15:00,65.9,16.9,29.93,NW,321,18.0,35.0,15,0.00,,,0.00,Wunderground v.1.15,2013-05-05 05:15:00,
2013-05-04 22:20:00,65.7,16.7,29.94,NW,325,17.0,35.0,15,0.00,,,0.00,Wunderground v.1.15,2013-05-05 05:20:00,
2013-05-04 22:30:00,65.3,17.9,29.94,NW,324,15.0,35.0,16,0.00,,,0.00,Wunderground v.1.15,2013-05-05 05:30:00,
2013-05-04 22:35:00,65.2,17.8,29.94,NW,318,13.0,35.0,16,0.00,,,0.00,Wunderground v.1.15,2013-05-05 05:35:00,
2013-05-04 22:45:00,64.8,17.5,29.94,NNW,346,9.0,30.0,16,0.00,,,0.00,Wunderground v.1.15,2013-05-05 05:45:00,
2013-05-04 22:50:00,64.7,18.8,29.94,NW,318,10.0,30.0,17,0.00,,,0.00,Wunderground v.1.15,2013-05-05 05:50:00,
2013-05-04 23:00:00,64.5,18.7,29.94,NW,311,14.0,14.0,17,0.00,,,0.00,Wunderground v.1.15,2013-05-05 06:00:00,
2013-05-04 23:05:00,64.2,19.8,29.94,WNW,285,13.0,25.0,18,0.00,,,0.00,Wunderground v.1.15,2013-05-05 06:05:00,
2013-05-04 23:15:00,64.3,19.8,29.93,NNW,329,14.0,25.0,18,0.00,,,0.00,Wunderground v.1.15,2013-05-05 06:15:00,
2013-05-04 23:20:00,64.2,19.8,29.93,NW,316,15.0,25.0,18,0.00,,,0.00,Wunderground v.1.15,2013-05-05 06:20:00,
2013-05-04 23:25:00,64.4,18.6,29.93,NW,319,15.0,25.0,17,0.00,,,0.00,Wunderground v.1.15,2013-05-05 06:25:00,
2013-05-04 23:30:00,64.7,17.4,29.93,NW,319,17.0,25.0,16,0.00,,,0.00,Wunderground v.1.15,2013-05-05 06:30:00,
2013-05-04 23:40:00,64.8,17.5,29.94,NNW,337,17.0,17.0,16,0.00,,,0.00,Wunderground v.1.15,2013-05-05 06:40:00,
2013-05-04 23:45:00,64.8,17.5,29.93,NW,312,18.0,18.0,16,0.00,,,0.00,Wunderground v.1.15,2013-05-05 06:45:00,
2013-05-04 23:50:00,64.7,17.4,29.94,NNW,331,18.0,35.0,16,0.00,,,0.00,Wunderground v.1.15,2013-05-05 06:50:00,